KMQY  Smyrna Airport

Add Bookmark

Smyrna, Tennessee, United States

Status Useage
Operational Public
Latitude Longitude
36° 0' 32" N 86° 31' 12" W
36.008972 -86.520083
Local (DST -5) UTC (GMT -6)
Oct 25, 2014 01:53 Oct 25, 2014 18:53
Sunrise-Sunset Local UTC
Begin Civil Twilight 06:35 11:35
Sunrise 07:01 12:01
Sunset 05:58 22:58
End Civil Twilight 06:24 23:24

Current Weather

METAR Observed VFR
KMQY 251756Z 29006KT 10SM CLR 24/15 A3005 Sat, Oct 25, 2014 @ 17:56 UTC
(57 Minutes ago)
Visual Flight Rules
Wind Visibility Clouds Conditions
290° at 6 knots (7 mph) 10 statute miles
  • Clear skies
  • No significant weather
Temperatures Readings Precipitation
Current Temp 24°C (75°F)
Low Temp 6°C (43°F)
High Temp 24°C (75°F)
Dewpoint 15°C (59°F)
Humidity 57%
Altimeter 30.05"Hg
Sea Level Pressure 1018.1mb
Field Elevation 543'
None Recorded

Additional weather within a 50nm radius of KMQY

Map ICAO Location
KBNA 10.3nm N (312°)
KSYI 27.2nm S (173°)
KRNC 37.8nm E (119°)
KTHA 40nm S (161°)
KMRC 42.1nm S (230°)
KSRB 48.1nm E (086°)

24 Hour Weather History

Loading
-

24 Hour Weather Graphs

Loading
-

CheckWX.com is intended as a tool to help pilots better visualize weather data. It is not intended as a substitute for an official weather briefing obtained from a Flight Service Station. CheckWX.com does not meet the FAA requirements for an official pre-flight weather briefing. Therefore, it's important that pilots still call and obtain an official FSS pre-flight weather briefing.